Regional Weather Roundup
Issued by NWS Cleveland, OH

Home | Current Version | Previous Version | Graphics & Text | Print | Product List | Glossary On
Versions: 1 2 3 4 5 6 7 8 9 10 11 12 13 14 15 16 17 18 19 20 21 22 23 24 25 26 27 28 29 30 31 32 33 34 35 36 37 38 39 40 41 42 43 44 45 46 47 48 49 50
000
ASUS41 KCLE 052000
RWRCLE
OHIO REGIONAL WEATHER ROUNDUP
NATIONAL WEATHER SERVICE WILMINGTON, OH
300 PM EST FRI FEB 05 2016

NOTE: "FAIR" INDICATES FEW OR NO CLOUDS BELOW 12,000 FEET WITH NO
SIGNIFICANT WEATHER AND/OR OBSTRUCTIONS TO VISIBILITY.

OHZ001>008-015>018-024>027-034-035-043-044-052100-
   NORTHWEST OHIO

CITY           SKY/WX    TMP DP  RH WIND       PRES   REMARKS
DEFIANCE       PTSUNNY   40  22  48 SW14      30.29F
FINDLAY        FAIR      40  21  46 SW12      30.30F
TOLEDO EXPRESS CLOUDY    39  19  44 SW9G20    30.29F
TOLEDO EXEC    FAIR      40  18  41 S14G22    30.31F
LIMA           FAIR      38  21  50 SW15      30.30F
$$

OHZ009>014-019>023-028>033-038-089-052100-
   NORTHEAST OHIO

CITY           SKY/WX    TMP DP  RH WIND       PRES   REMARKS
CLE-HOPKINS    FAIR      36  19  50 SW9       30.35F
CLE-LAKEFRONT  FAIR      36  22  56 N3        30.33F
CUY CO. ARPT   NOT AVBL
LORAIN-ELYRIA  FAIR      36  20  52 W7G17     30.32F
ASHTABULA      FAIR      32  15  49 NW7       30.33F WCI  26
AKRON-CANTON   FAIR      36  18  48 NW7       30.32F
WOOSTER        NOT AVBL
MANSFIELD      FAIR      36  20  52 SW7       30.30F
YOUNGSTOWN     PTSUNNY   34  18  52 W7        30.31F WCI  28
$$

OHZ042-051>053-060>062-070>072-077>081-052100-
  SOUTHWEST OHIO

CITY           SKY/WX    TMP DP  RH WIND       PRES   REMARKS
CINC-COVINGTON FAIR      41  18  39 S8G17     30.35
CINC-LUNKEN    FAIR      42  18  37 S7        30.37F
HAMILTON       FAIR      43  18  36 VRB7      30.35F
DAYTON         NOT AVBL
WRIGHT-PAT AFB FAIR      41  15  35 S12       30.33F
DAYTON GENERAL FAIR      40  16  37 S12G17    30.32F
WILMINGTON     FAIR      38  20  48 S12       30.34F
$$

OHZ036-037-039>041-045>050-054>059-063>069-073>076-082>088-052100-
  CENTRAL AND SOUTHEAST OHIO

CITY           SKY/WX    TMP DP  RH WIND       PRES   REMARKS
COLUMBUS       FAIR      37  16  42 S8        30.35F
OSU AIRPORT    FAIR      38  19  46 SW13      30.33F
BOLTON FIELD   SUNNY     37  19  48 SW7       30.35F
RICKENBACK AFB NOT AVBL
NEWARK         FAIR      39  19  44 SW6       30.34F
MARION         FAIR      37  19  48 SW16      30.32F
LANCASTER      FAIR      39  19  44 W6        30.36F
ZANESVILLE     FAIR      39  18  42 VRB6      30.35F
NEW PHILLY     FAIR      36  18  48 VRB6      30.35F
$$



USA.gov is the U.S. government's official web portal to all federal, state and local government web resources and services.